Location: Borotín
(49.5055°N, 14.6142°E)
Time: 06:57:00
(UTC+00:00)

Gblst 52 Del rocket - Pass Details

Date: 27 May 2022
Orbit: 805 x 1365 km, 51.5° (Epoch: 28 June)

Event Time Altitude Azimuth Distance (km) Brightness Sun altitude
Rises 01:00:03 0° 280° (W) 3,556 7.3 -14.3°
Reaches altitude 10° 01:02:43 10° 282° (WNW) 2,547 6.5 -14.1°
Maximum altitude 01:08:35 76° 8° (N) 859 4.4 -13.6°
Drops below altitude 10° 01:14:05 10° 95° (E) 2,387 6.9 -13.1°
Sets 01:16:31 0° 97° (E) 3,317 7.7 -12.9°
